[[{"header":{"parameterUnit":"m.s-1","parameterCategory":2,"la1":30.2991,"la2":30.254,"lo1":-89.0895,"lo2":-89.0444,"dy":0.0017,"dx":0.0017,"nx":28,"ny":28,"refTime":"2025-12-17T03:00:00:Z","depth":"0","parameterNumber":2,"parameterNumberName":"U-component_of_CURRENTS"},"data":[0,0,0,0,0,0,0,0,0,0,0,0,0,0,0,0,0,0,0,0,0,0,0,0,0,0,0,0,0,0,0,0,0,0,0,0,0,0,0,0,0,0,0,0,0,0,0,0,0,0,0,0,0,0,0,0,0,0,0.2526,0.2527,0,0.254,0.2539,0.2539,0.2533,0.2533,0.2533,0.2533,0.2502,0.2501,0.2501,0,0,0,0,0,0,0,0,0,0,0,0,0,0.2487,0.2487,0.2526,0.2527,0.2527,0.254,0.2539,0.2539,0.2533,0.2533,0.2533,0.2533,0.2503,0.2502,0.25,0,0,0,0,0,0,0,0,0,0,0,0,0,0.2498,0.2487,0.2526,0.2529,0.253,0.254,0.2539,0.2539,0.2533,0.2533,0.2533,0.2533,0.2503,0.2502,0.25,0.249,0,0,0.2496,0.2496,0,0,0,0,0,0,0,0,0.2498,0.2499,0.2528,0.2529,0.253,0.2539,0.2515,0.2522,0.2533,0.2527,0.2533,0.2533,0.2513,0.2511,0.2508,0.2488,0.2487,0.2496,0.2495,0.2495,0.2494,0,0,0,0,0,0,0,0.2497,0.2498,0.2527,0.2529,0.253,0.2527,0.2529,0.2516,0.2515,0.2527,0.2528,0.2537,0.2513,0.2509,0.2507,0.2487,0.2496,0.2495,0.2494,0.2494,0.2505,0.2506,0,0,0,0,0,0,0.2505,0.2498,0.2526,0.2528,0.2519,0.2528,0.253,0.2532,0.2516,0.2515,0.2537,0.2537,0.2511,0.2508,0.2506,0.2537,0.2495,0.2494,0.2493,0.2504,0.2505,0.2506,0,0,0,0,0,0,0.2504,0.2507,0.2526,0.2517,0.252,0.2529,0.2532,0.2532,0.2533,0.2525,0.2522,0.2539,0.2511,0.2507,0.2507,0.2534,0.2493,0.2492,0.2502,0.2504,0.2506,0.257,0,0,0,0,0,0,0.2502,0.2506,0.2508,0.2517,0.2521,0.2539,0.2532,0.2533,0.254,0.254,0.2525,0.2522,0.2511,0.2509,0.2505,0.2531,0.2491,0.2501,0.2503,0.2505,0.2567,0.2574,0.258,0,0,0,0,0,0.2501,0.2505,0.2508,0.2512,0.2524,0.254,0.2541,0.2545,0.2541,0.2544,0.2538,0.2523,0.252,0.2508,0.2504,0.253,0.25,0.2503,0.2505,0.2564,0.2573,0.258,0,0,0,0,0,0,0.2486,0.2505,0.2509,0.2517,0.2532,0.2541,0.2546,0.2548,0.2545,0.2544,0.2529,0.2526,0.254,0.2522,0.251,0.254,0.251,0.2512,0.2557,0.2565,0.2571,0.2583,0.249,0,0,0,0,0,0.2485,0.2493,0.2513,0.2519,0.2529,0.2537,0.2543,0.2549,0.2552,0.255,0.2543,0.2539,0.2545,0.2544,0.2542,0.2549,0.2559,0.2566,0.2572,0.2578,0.2586,0.2623,0.2635,0.2514,0.2514,0.2514,0,0,0.2482,0.2494,0.2498,0.2517,0.2526,0.2545,0.2539,0.2555,0.2573,0.2547,0.2561,0.2559,0.2553,0.2571,0.2575,0.256,0.2621,0.2581,0.2586,0.2591,0.2627,0.2639,0.265,0.2516,0.2516,0.2515,0,0,0.2484,0.249,0.2502,0.2517,0.2541,0.2551,0.2558,0.2574,0.2583,0.2598,0.2593,0.261,0.2603,0.2617,0.262,0.2659,0.2656,0.2657,0.2699,0.2736,0.2746,0.2755,0.2801,0.2814,0.266,0.266,0.266,0,0.2481,0.2496,0.2508,0.2527,0.2542,0.2556,0.2575,0.259,0.2605,0.2622,0.2611,0.2641,0.2631,0.2672,0.2688,0.2676,0.2697,0.2669,0.2746,0.2755,0.2763,0.2808,0.2821,0.2663,0.2663,0.2662,0.2662,0,0.2498,0.2511,0.252,0.2549,0.2567,0.2585,0.2614,0.2634,0.2646,0.2667,0.2709,0.2709,0.273,0.2735,0.2721,0.278,0.2778,0.2752,0.2727,0.278,0.2823,0.2836,0.2668,0.2667,0.2666,0.2665,0,0,0.248,0.2524,0.2525,0.254,0.258,0.2592,0.2635,0.2677,0.2705,0.2737,0.2777,0.2806,0.2817,0.2822,0.2818,0.2848,0.2927,0.2827,0.2828,0.2877,0.3024,0.3001,0.3013,0.2916,0.2918,0.2919,0.3037,0,0.2488,0.2522,0.2545,0.2575,0.2593,0.2626,0.2661,0.2704,0.2737,0.2778,0.2818,0.2845,0.2849,0.2855,0.2899,0.2909,0.2961,0.2899,0.2962,0.2964,0.2941,0.3026,0.2784,0.2866,0.3049,0.3052,0.3053,0,0.2491,0.2514,0.2545,0.2587,0.2599,0.262,0.2675,0.2709,0.2782,0.281,0.2871,0.2894,0.2961,0.2935,0.3036,0.2997,0.3027,0.3038,0.3042,0.3006,0.2965,0.284,0.2882,0.2755,0.3072,0.3071,0.3069,0,0.2462,0.2507,0.2529,0.2544,0.26,0.2621,0.265,0.2717,0.276,0.2826,0.2865,0.2947,0.2984,0.3044,0.3099,0.3067,0.3201,0.3153,0.3175,0.3173,0.2971,0.2949,0.2896,0.3236,0.3236,0.3235,0.3235,0,0.2455,0.247,0.2514,0.2525,0.2556,0.2597,0.2642,0.2684,0.2758,0.2818,0.2877,0.2942,0.301,0.3096,0.3135,0.3216,0.3245,0.321,0.321,0.2989,0.2968,0.285,0.2822,0.324,0.3239,0.3238,0.3237,0,0.2423,0.2453,0.2481,0.2531,0.2543,0.2564,0.2636,0.2673,0.2741,0.282,0.2844,0.2958,0.3078,0.3164,0.3258,0.3257,0.3213,0.3342,0.3089,0.3058,0.2932,0.2918,0.2868,0.2784,0.3374,0.3375,0.3375,0,0.2417,0.2424,0.2472,0.249,0.2512,0.2551,0.2581,0.2653,0.2699,0.2837,0.2874,0.3013,0.3114,0.3267,0.3264,0.3344,0.3254,0.316,0.3053,0.2921,0.2905,0.2837,0.2764,0.2816,0.2811,0.2808,0.2805,0,0.2399,0.2411,0.2433,0.2469,0.2496,0.2532,0.2578,0.2614,0.2709,0.2779,0.289,0.2978,0.3117,0.3085,0.3176,0.3178,0.2953,0.3093,0.2994,0.2515,0.2394,0.2312,0.2766,0.2773,0.2776,0.2778,0.278,0.2781,0.2382,0.2386,0.2409,0.2441,0.2472,0.2493,0.2486,0.255,0.2608,0.2666,0.2818,0.2859,0.2846,0.2936,0.2939,0.271,0.2814,0.2554,0.2569,0.253,0.2372,0.279,0.2775,0.2778,0.2781,0.2783,0.2785,0,0.2346,0.235,0.238,0.2396,0.2396,0.2435,0.2463,0.243,0.2446,0.2534,0.2601,0.2534,0.2465,0.2443,0.2262,0.2149,0.2037,0.2077,0.186,0.1834,0.2205,0.2097,0.1885,0.1885,0.1885,0.1885,0.1885,0.1885,0.2323,0.2317,0.2325,0.2306,0.2313,0.2256,0.2243,0.2212,0.2227,0.2183,0.2124,0.215,0.2116,0.1948,0.1734,0.168,0.1551,0.1473,0.1581,0.1751,0.1793,0.1833,0.1722,0.1434,0.1433,0.1025,0.1022,0.1019]},{"header":{"parameterUnit":"m.s-1","parameterCategory":2,"la1":30.2991,"la2":30.254,"lo1":-89.0895,"lo2":-89.0444,"dy":0.0017,"dx":0.0017,"nx":28,"ny":28,"refTime":"2025-12-17T03:00:00:Z","depth":"0","parameterNumber":3,"parameterNumberName":"V-component_of_CURRENTS"},"data":[0,0,0,0,0,0,0,0,0,0,0,0,0,0,0,0,0,0,0,0,0,0,0,0,0,0,0,0,0,0,0,0,0,0,0,0,0,0,0,0,0,0,0,0,0,0,0,0,0,0,0,0,0,0,0,0,0,0,-0.0378,-0.0379,0,-0.0434,-0.0435,-0.0435,-0.047,-0.0471,-0.0471,-0.0471,-0.0528,-0.0529,-0.053,0,0,0,0,0,0,0,0,0,0,0,0,0,-0.0306,-0.0307,-0.0378,-0.0379,-0.038,-0.0434,-0.0435,-0.0435,-0.047,-0.0471,-0.0471,-0.0471,-0.0528,-0.0529,-0.0531,0,0,0,0,0,0,0,0,0,0,0,0,0,-0.0346,-0.0308,-0.0378,-0.0405,-0.0409,-0.0434,-0.0435,-0.0436,-0.047,-0.0471,-0.0471,-0.0472,-0.0527,-0.0529,-0.0531,-0.053,0,0,-0.0536,-0.0537,0,0,0,0,0,0,0,0,-0.0343,-0.0348,-0.04,-0.0404,-0.0407,-0.0448,-0.0431,-0.0468,-0.047,-0.0444,-0.0471,-0.0472,-0.0502,-0.0506,-0.0512,-0.0533,-0.0535,-0.0536,-0.0537,-0.0538,-0.0539,0,0,0,0,0,0,0,-0.034,-0.0346,-0.0398,-0.0401,-0.0406,-0.0417,-0.0423,-0.0438,-0.0468,-0.0447,-0.045,-0.0459,-0.0504,-0.0511,-0.0514,-0.0536,-0.0536,-0.0538,-0.0539,-0.054,-0.0585,-0.0586,0,0,0,0,0,0,-0.0337,-0.0343,-0.0397,-0.04,-0.0378,-0.0418,-0.0424,-0.0432,-0.0468,-0.0474,-0.0459,-0.0461,-0.0507,-0.0512,-0.0516,-0.0535,-0.0538,-0.054,-0.0541,-0.0585,-0.0586,-0.0586,0,0,0,0,0,0,-0.0335,-0.0341,-0.0394,-0.0375,-0.0383,-0.0419,-0.0427,-0.0433,-0.044,-0.0477,-0.0484,-0.046,-0.0508,-0.0514,-0.0533,-0.0536,-0.054,-0.0542,-0.0585,-0.0585,-0.0586,-0.056,0,0,0,0,0,0,-0.0333,-0.034,-0.034,-0.0374,-0.0384,-0.0403,-0.0427,-0.0434,-0.0446,-0.0449,-0.048,-0.0486,-0.0509,-0.053,-0.0534,-0.0539,-0.0543,-0.0585,-0.0585,-0.0586,-0.0561,-0.056,-0.0559,0,0,0,0,0,-0.033,-0.0327,-0.034,-0.0346,-0.0384,-0.0403,-0.0408,-0.0434,-0.0446,-0.0443,-0.0471,-0.0485,-0.0535,-0.0531,-0.0536,-0.0542,-0.0585,-0.0585,-0.0586,-0.0561,-0.056,-0.0559,0,0,0,0,0,0,-0.0296,-0.0331,-0.0346,-0.0354,-0.0375,-0.0409,-0.041,-0.0429,-0.0447,-0.045,-0.0485,-0.0492,-0.051,-0.0528,-0.0522,-0.0557,-0.0564,-0.0565,-0.0543,-0.0542,-0.0541,-0.053,-0.0545,0,0,0,0,0,-0.0288,-0.0296,-0.033,-0.0336,-0.0343,-0.0374,-0.0384,-0.0402,-0.0427,-0.0435,-0.0463,-0.0491,-0.0515,-0.053,-0.055,-0.0565,-0.0559,-0.0574,-0.0572,-0.0571,-0.0567,-0.0562,-0.056,-0.0587,-0.0587,-0.0587,0,0,-0.028,-0.0298,-0.0305,-0.0329,-0.0346,-0.0352,-0.038,-0.0391,-0.0401,-0.0438,-0.0456,-0.0483,-0.0517,-0.0538,-0.0548,-0.0554,-0.0557,-0.0572,-0.057,-0.0566,-0.0562,-0.0559,-0.0557,-0.0587,-0.0587,-0.0587,0,0,-0.0261,-0.0278,-0.0276,-0.0288,-0.031,-0.033,-0.033,-0.0362,-0.0379,-0.0401,-0.0433,-0.0462,-0.0497,-0.0527,-0.0546,-0.0549,-0.0548,-0.0557,-0.0547,-0.0543,-0.054,-0.0538,-0.0508,-0.0504,-0.0561,-0.0561,-0.0561,0,-0.025,-0.0252,-0.0277,-0.0275,-0.0281,-0.0317,-0.0312,-0.0334,-0.0371,-0.0383,-0.0401,-0.0462,-0.0493,-0.0523,-0.0533,-0.0546,-0.0532,-0.0549,-0.054,-0.0537,-0.0535,-0.0506,-0.0501,-0.056,-0.056,-0.056,-0.056,0,-0.0228,-0.023,-0.0226,-0.0238,-0.0246,-0.0246,-0.0279,-0.0291,-0.0318,-0.0348,-0.0382,-0.0431,-0.0464,-0.0488,-0.0516,-0.0525,-0.0515,-0.0533,-0.0539,-0.0531,-0.0501,-0.0496,-0.0558,-0.0558,-0.0559,-0.0559,0,0,-0.0199,-0.0211,-0.0206,-0.0204,-0.0225,-0.0228,-0.0239,-0.026,-0.0261,-0.0315,-0.032,-0.0394,-0.0421,-0.0444,-0.0485,-0.0501,-0.048,-0.0512,-0.0513,-0.0475,-0.0445,-0.0427,-0.042,-0.0494,-0.0493,-0.0493,-0.0423,0,-0.0173,-0.0157,-0.0172,-0.0158,-0.0152,-0.018,-0.0186,-0.0211,-0.0237,-0.0249,-0.0315,-0.0339,-0.0404,-0.0417,-0.0444,-0.0471,-0.0469,-0.0496,-0.0466,-0.0465,-0.0443,-0.0415,-0.0361,-0.0294,-0.0418,-0.0417,-0.0417,0,-0.0141,-0.0133,-0.0114,-0.0115,-0.0114,-0.0114,-0.0114,-0.0124,-0.0155,-0.0174,-0.0215,-0.0258,-0.0304,-0.0349,-0.039,-0.0401,-0.0415,-0.044,-0.0438,-0.0427,-0.0438,-0.0327,-0.028,-0.0366,-0.041,-0.041,-0.0411,0,-0.0098,-0.009,-0.0072,-0.0072,-0.0081,-0.0076,-0.008,-0.0101,-0.01,-0.0121,-0.0112,-0.018,-0.0191,-0.0243,-0.0304,-0.0339,-0.0322,-0.0372,-0.0364,-0.0361,-0.0313,-0.0308,-0.034,-0.0374,-0.0375,-0.0375,-0.0375,0,-0.0065,-0.0049,-0.005,-0.0039,-0.0011,-0.0032,-0.001,-0.002,-0.0023,0.0006,-0.0069,-0.0045,-0.0165,-0.0179,-0.0249,-0.0277,-0.0271,-0.0345,-0.0342,-0.0302,-0.0297,-0.0369,-0.0438,-0.0372,-0.0373,-0.0373,-0.0374,0,-0.0031,-0.0033,-0.0011,-0.0003,0.0006,0.0024,0.0037,0.0056,0.005,0.0096,0.0096,0.0066,0.0061,-0.0038,-0.0093,-0.0185,-0.026,-0.0232,-0.0166,-0.0158,-0.0269,-0.0338,-0.036,-0.0394,-0.0226,-0.0225,-0.0224,0,-0.002,0.0002,0.0027,0.0049,0.0052,0.0077,0.0101,0.0095,0.013,0.0181,0.0222,0.0226,0.0276,0.0196,0.0053,-0.0036,-0.0163,-0.0094,-0.0173,-0.0253,-0.0328,-0.0385,-0.0417,-0.0086,-0.0085,-0.0083,-0.0082,0,0.0017,0.0029,0.0052,0.0103,0.0131,0.0169,0.0211,0.0252,0.0279,0.0346,0.0462,0.0513,0.0454,0.0392,0.0231,0.0141,-0.0152,-0.0069,-0.0167,-0.0233,-0.0278,-0.0315,-0.0146,-0.0069,-0.007,-0.0071,-0.0072,-0.0072,0.0048,0.0076,0.0118,0.0162,0.0206,0.0279,0.0332,0.0406,0.051,0.0648,0.0674,0.0809,0.0653,0.0462,0.0313,0.0027,-0.0022,-0.0087,-0.0161,-0.0209,-0.0259,-0.0054,0.0024,0.0023,0.0022,0.0022,0.0021,0,0.0098,0.0134,0.018,0.0243,0.031,0.0319,0.0424,0.05,0.0667,0.0823,0.0957,0.0989,0.0818,0.0556,0.0171,-0.0037,-0.0133,-0.0169,-0.0243,-0.0274,-0.0086,-0.0099,-0.0024,-0.0024,-0.0024,-0.0024,-0.0024,-0.0024,0.0127,0.0186,0.0211,0.0331,0.0384,0.0486,0.0558,0.0693,0.0826,0.104,0.1151,0.1212,0.0991,0.0354,-0.0081,-0.0183,-0.0358,-0.0367,-0.0484,-0.0371,-0.037,-0.0369,-0.0397,-0.0386,-0.0387,-0.0619,-0.0622,-0.0623]}],[{"header":{"parameterUnit":"m.s-1","parameterCategory":2,"la1":30.2991,"la2":30.254,"lo1":-89.0895,"lo2":-89.0444,"dy":0.0017,"dx":0.0017,"nx":28,"ny":28,"refTime":"2025-12-17T03:00:00:Z","depth":"2","parameterNumber":2,"parameterNumberName":"U-component_of_CURRENTS"},"data":[0,0,0,0,0,0,0,0,0,0,0,0,0,0,0,0,0,0,0,0,0,0,0,0,0,0,0,0,0,0,0,0,0,0,0,0,0,0,0,0,0,0,0,0,0,0,0,0,0,0,0,0,0,0,0,0,0,0,0.1991,0.1992,0,0.201,0.201,0.2009,0.2008,0.2009,0.2009,0.201,0.2012,0.2011,0.2011,0,0,0,0,0,0,0,0,0,0,0,0,0,0.1966,0.1966,0.1991,0.1992,0.1993,0.201,0.201,0.2009,0.2008,0.2009,0.2009,0.201,0.2012,0.2011,0.2011,0,0,0,0,0,0,0,0,0,0,0,0,0,0.1972,0.1965,0.1991,0.2001,0.2002,0.201,0.201,0.2009,0.2008,0.2009,0.201,0.201,0.2012,0.2011,0.2011,0.1993,0,0,0.2009,0.2009,0,0,0,0,0,0,0,0,0.1972,0.1972,0.1998,0.2,0.2002,0.2015,0.2002,0.2006,0.2008,0.1997,0.201,0.2011,0.2016,0.2015,0.2006,0.1993,0.1993,0.2009,0.2009,0.2008,0.2008,0,0,0,0,0,0,0,0.1971,0.1971,0.199,0.2,0.2002,0.2009,0.2009,0.2002,0.1996,0.1998,0.2,0.2015,0.2016,0.2006,0.2006,0.1993,0.2009,0.2008,0.2008,0.2008,0.2062,0.2063,0,0,0,0,0,0,0.1984,0.1971,0.199,0.1992,0.1998,0.2009,0.201,0.2003,0.1996,0.1998,0.2015,0.2015,0.2007,0.2006,0.2006,0.206,0.2008,0.2008,0.2007,0.206,0.2062,0.2064,0,0,0,0,0,0,0.1983,0.1984,0.1989,0.199,0.1992,0.201,0.2002,0.2004,0.2011,0.201,0.2011,0.2024,0.2007,0.2007,0.2033,0.2058,0.2007,0.2007,0.2058,0.2061,0.2063,0.212,0,0,0,0,0,0,0.1981,0.1983,0.1983,0.199,0.1993,0.2008,0.2003,0.2004,0.2022,0.2023,0.2018,0.2018,0.2008,0.2035,0.2033,0.2056,0.2006,0.2055,0.2059,0.2062,0.2116,0.2125,0.2132,0,0,0,0,0,0.198,0.1981,0.1981,0.1985,0.199,0.2009,0.201,0.2021,0.2022,0.2027,0.204,0.2019,0.2055,0.2036,0.2033,0.2056,0.2054,0.2058,0.2062,0.2113,0.2123,0.2132,0,0,0,0,0,0,0.1973,0.1982,0.1983,0.1987,0.2004,0.2013,0.2025,0.2029,0.2039,0.2046,0.2037,0.2038,0.2072,0.2059,0.2038,0.2085,0.2052,0.2056,0.2092,0.2101,0.2109,0.2101,0.2006,0,0,0,0,0,0.1971,0.1974,0.1987,0.1996,0.2004,0.2014,0.2024,0.2033,0.2047,0.2052,0.2055,0.2065,0.2082,0.2089,0.2096,0.2115,0.2119,0.2132,0.2139,0.2146,0.214,0.219,0.2201,0.2077,0.2077,0.2077,0,0,0.1976,0.1982,0.1986,0.1996,0.2006,0.2021,0.202,0.2045,0.2059,0.2051,0.2074,0.209,0.2095,0.2125,0.2138,0.212,0.2187,0.2151,0.2156,0.2147,0.2195,0.2207,0.2218,0.208,0.2079,0.2079,0,0,0.1987,0.1988,0.1992,0.2007,0.2034,0.204,0.2052,0.207,0.2078,0.2104,0.2114,0.2153,0.2158,0.218,0.2187,0.2241,0.2228,0.2245,0.2273,0.2322,0.2333,0.2342,0.2372,0.2383,0.2247,0.2247,0.2247,0,0.1991,0.1994,0.2001,0.2013,0.2034,0.2051,0.2068,0.2077,0.2105,0.2127,0.2121,0.2179,0.2184,0.2235,0.2257,0.2258,0.2277,0.2235,0.2332,0.2341,0.2349,0.2378,0.2389,0.225,0.225,0.225,0.2249,0,0.2001,0.2012,0.2022,0.2036,0.2057,0.2081,0.2102,0.2128,0.2145,0.2162,0.2219,0.2237,0.2278,0.2288,0.2284,0.2352,0.2345,0.2338,0.2305,0.2365,0.2391,0.2402,0.2255,0.2254,0.2253,0.2252,0,0,0.1987,0.2019,0.2025,0.2036,0.2074,0.209,0.2129,0.2168,0.2201,0.2232,0.2279,0.232,0.2347,0.2358,0.2372,0.2404,0.2483,0.2396,0.2397,0.2419,0.2585,0.2495,0.2498,0.2498,0.25,0.2502,0.2583,0,0.1992,0.2011,0.2034,0.2068,0.2079,0.2121,0.2158,0.2203,0.2235,0.2284,0.2325,0.2371,0.2368,0.24,0.2439,0.2479,0.2513,0.246,0.2528,0.2529,0.2437,0.2509,0.228,0.2326,0.2593,0.2595,0.2596,0,0.1989,0.2003,0.203,0.2081,0.2093,0.2124,0.2194,0.2226,0.2304,0.2343,0.2407,0.2431,0.2509,0.2481,0.2583,0.2554,0.2574,0.2586,0.259,0.2488,0.246,0.2308,0.2335,0.2615,0.2613,0.2612,0.2611,0,0.1961,0.2001,0.2021,0.2038,0.2099,0.2135,0.2174,0.2249,0.229,0.2382,0.2431,0.2515,0.2573,0.2618,0.265,0.2634,0.2735,0.2721,0.2653,0.2647,0.2453,0.2425,0.2777,0.2777,0.2776,0.2776,0.2776,0,0.1952,0.1968,0.2011,0.2025,0.207,0.212,0.2178,0.2242,0.2329,0.2387,0.246,0.2516,0.261,0.2667,0.2684,0.2706,0.2777,0.2666,0.2667,0.2467,0.2441,0.2684,0.2672,0.2779,0.2779,0.2778,0.2777,0,0.1923,0.1949,0.1969,0.203,0.2057,0.2087,0.2178,0.2221,0.2316,0.2394,0.2431,0.2555,0.2642,0.2696,0.2779,0.2749,0.2771,0.275,0.2498,0.2466,0.2642,0.2633,0.2704,0.2701,0.2699,0.2698,0.2696,0,0.1904,0.1917,0.1964,0.1977,0.2008,0.206,0.211,0.2215,0.2254,0.2399,0.2432,0.255,0.2587,0.2675,0.266,0.2674,0.2745,0.246,0.2378,0.2644,0.2639,0.2632,0.2625,0.2155,0.2149,0.2144,0.214,0,0.1881,0.1901,0.1913,0.1943,0.1985,0.2027,0.2091,0.2117,0.2236,0.231,0.2374,0.2407,0.248,0.2389,0.242,0.2398,0.2441,0.2364,0.273,0.2199,0.213,0.2123,0.2134,0.2099,0.2103,0.2106,0.2108,0.211,0.1854,0.186,0.1881,0.1899,0.1945,0.1974,0.1964,0.2022,0.208,0.2105,0.2202,0.2171,0.2183,0.2106,0.2052,0.2037,0.2214,0.2108,0.2121,0.214,0.2053,0.1983,0.1907,0.191,0.1913,0.1915,0.1917,0,0.1817,0.1833,0.184,0.1849,0.1852,0.1913,0.1938,0.1883,0.1881,0.1921,0.1908,0.1724,0.1661,0.171,0.1607,0.1605,0.1583,0.1553,0.1499,0.1542,0.158,0.1462,0.1161,0.1159,0.1157,0.1155,0,0,0.1796,0.1782,0.1778,0.1749,0.1761,0.1734,0.1718,0.1648,0.1625,0.1534,0.1491,0.1527,0.1621,0.1347,0.1322,0.1226,0.1372,0.1177,0.1783,0.1761,0.1796,0.1902,0.177,0,0,0,0,0]},{"header":{"parameterUnit":"m.s-1","parameterCategory":2,"la1":30.2991,"la2":30.254,"lo1":-89.0895,"lo2":-89.0444,"dy":0.0017,"dx":0.0017,"nx":28,"ny":28,"refTime":"2025-12-17T03:00:00:Z","depth":"2","parameterNumber":3,"parameterNumberName":"V-component_of_CURRENTS"},"data":[0,0,0,0,0,0,0,0,0,0,0,0,0,0,0,0,0,0,0,0,0,0,0,0,0,0,0,0,0,0,0,0,0,0,0,0,0,0,0,0,0,0,0,0,0,0,0,0,0,0,0,0,0,0,0,0,0,0,0.0178,0.0178,0,0.0154,0.0154,0.0153,0.0126,0.0126,0.0125,0.0125,0.0084,0.0084,0.0083,0,0,0,0,0,0,0,0,0,0,0,0,0,0.0168,0.0169,0.0178,0.0178,0.0178,0.0154,0.0154,0.0153,0.0126,0.0126,0.0125,0.0125,0.0085,0.0084,0.0083,0,0,0,0,0,0,0,0,0,0,0,0,0,0.0162,0.0169,0.0178,0.0161,0.0159,0.0154,0.0154,0.0153,0.0127,0.0126,0.0125,0.0125,0.0085,0.0084,0.0083,0.009,0,0,0.008,0.0079,0,0,0,0,0,0,0,0,0.0162,0.0162,0.0164,0.0162,0.016,0.0142,0.0135,0.0131,0.0127,0.0139,0.0125,0.0124,0.0102,0.01,0.0098,0.0088,0.0086,0.008,0.0079,0.0079,0.0078,0,0,0,0,0,0,0,0.0163,0.0163,0.0169,0.0164,0.0161,0.0143,0.0141,0.0134,0.0125,0.0138,0.0136,0.0133,0.0101,0.0099,0.0096,0.0086,0.008,0.0079,0.0078,0.0078,0.0055,0.0055,0,0,0,0,0,0,0.0167,0.0164,0.017,0.0168,0.0159,0.0144,0.0142,0.0149,0.0125,0.0121,0.0133,0.0132,0.0101,0.0098,0.0095,0.0094,0.0079,0.0078,0.0077,0.0055,0.0055,0.0055,0,0,0,0,0,0,0.0167,0.0168,0.0171,0.0164,0.0163,0.0145,0.0152,0.0149,0.0141,0.0122,0.0117,0.0129,0.01,0.0096,0.008,0.0093,0.0077,0.0076,0.0055,0.0055,0.0055,0.0098,0,0,0,0,0,0,0.0167,0.0169,0.0175,0.0165,0.0164,0.017,0.0153,0.0149,0.014,0.0138,0.0117,0.0112,0.0099,0.0082,0.0079,0.0091,0.0076,0.0055,0.0055,0.0055,0.0097,0.01,0.0102,0,0,0,0,0,0.0167,0.0181,0.0176,0.0177,0.0174,0.017,0.0168,0.0152,0.0141,0.0142,0.0121,0.0113,0.008,0.0081,0.0078,0.009,0.0055,0.0055,0.0055,0.0096,0.0099,0.0102,0,0,0,0,0,0,0.0179,0.0179,0.0174,0.0187,0.0179,0.0165,0.0166,0.0154,0.0139,0.0134,0.0112,0.0106,0.0095,0.0085,0.0086,0.0082,0.0067,0.0066,0.0099,0.0102,0.0104,0.0141,0.0075,0,0,0,0,0,0.0186,0.0195,0.0189,0.0197,0.0196,0.018,0.0176,0.0167,0.0152,0.0145,0.0127,0.0109,0.0095,0.0091,0.0075,0.0077,0.0063,0.0081,0.0084,0.0087,0.0113,0.0077,0.0079,0.0055,0.0055,0.0055,0,0,0.019,0.0192,0.0195,0.0199,0.0192,0.02,0.0176,0.0174,0.0182,0.0143,0.0143,0.0115,0.0094,0.0091,0.0086,0.0084,0.0086,0.0087,0.0089,0.0115,0.0077,0.0079,0.0081,0.0055,0.0055,0.0055,0,0,0.0207,0.0208,0.0223,0.0222,0.0217,0.0211,0.0211,0.0199,0.0195,0.0192,0.0161,0.0143,0.0126,0.0115,0.0108,0.0117,0.0095,0.0106,0.0159,0.0123,0.0125,0.0126,0.0115,0.0115,0.0115,0.0115,0.0115,0,0.0214,0.0234,0.0224,0.0239,0.0243,0.0219,0.0236,0.0232,0.0214,0.022,0.0198,0.0172,0.0145,0.015,0.015,0.0127,0.0107,0.015,0.0127,0.0129,0.013,0.0117,0.0117,0.0117,0.0117,0.0117,0.0116,0,0.0244,0.0257,0.0266,0.028,0.0282,0.0291,0.0286,0.0286,0.0275,0.0273,0.0271,0.0234,0.0222,0.0205,0.0184,0.0182,0.0165,0.0128,0.0123,0.0135,0.0121,0.012,0.012,0.0119,0.0119,0.0118,0,0,0.0266,0.0285,0.0287,0.0306,0.0306,0.0316,0.0329,0.0343,0.0364,0.0343,0.0364,0.0334,0.0312,0.0303,0.0265,0.0244,0.0222,0.0197,0.0194,0.0195,0.0157,0.0146,0.0144,0.0172,0.0172,0.0172,0.0146,0,0.0294,0.0335,0.0333,0.0368,0.0391,0.0378,0.0395,0.0403,0.0407,0.0419,0.0394,0.039,0.035,0.0337,0.0311,0.0243,0.0221,0.0235,0.014,0.0138,0.0133,0.0143,0.0157,0.0135,0.0145,0.0145,0.0144,0,0.0328,0.0353,0.0394,0.0426,0.0434,0.0447,0.0479,0.0495,0.0505,0.0505,0.0505,0.0475,0.0455,0.04,0.0326,0.0333,0.0257,0.0205,0.0201,0.0182,0.0125,0.0123,0.0133,0.0143,0.0143,0.0143,0.0143,0,0.0362,0.0399,0.0436,0.0445,0.0472,0.0488,0.0502,0.0522,0.0558,0.0559,0.058,0.0543,0.0526,0.0438,0.0342,0.0321,0.0255,0.0202,0.0131,0.0129,0.0123,0.0122,0.0142,0.0142,0.0142,0.0142,0.0142,0,0.0399,0.0429,0.0455,0.0476,0.0527,0.0528,0.0585,0.0592,0.0623,0.0682,0.0627,0.066,0.053,0.048,0.0372,0.027,0.0274,0.0159,0.0123,0.0138,0.0138,0.0128,0.0126,0.0141,0.0142,0.0142,0.0142,0,0.0432,0.0444,0.0497,0.0533,0.0545,0.0585,0.0643,0.0693,0.0703,0.0776,0.0776,0.0747,0.0676,0.0558,0.0417,0.0318,0.0207,0.016,0.0204,0.0174,0.0098,0.0099,0.0081,0.008,0.008,0.0079,0.0079,0,0.0455,0.0478,0.0542,0.0583,0.06,0.0656,0.07,0.0727,0.0792,0.0845,0.089,0.0837,0.0823,0.0631,0.0437,0.0258,0.022,0.0142,0.01,0.0126,0.0093,0.0094,0.0096,0.0109,0.0109,0.0109,0.0109,0,0.0491,0.051,0.0557,0.064,0.0695,0.077,0.0837,0.0898,0.0947,0.1006,0.1066,0.105,0.087,0.0685,0.0431,0.0308,0.0171,0.0135,0.0146,0.0122,0.015,0.0118,0.0119,0.0108,0.0108,0.0108,0.0108,0.0108,0.0523,0.0562,0.0621,0.0701,0.0773,0.0868,0.0932,0.102,0.1118,0.1185,0.1177,0.1133,0.0929,0.0587,0.039,0.017,0.0175,0.0079,0.008,0.0081,0.0089,0.0114,0.0069,0.0069,0.0068,0.0068,0.0068,0,0.0559,0.0597,0.0677,0.0776,0.0863,0.0893,0.1011,0.1073,0.119,0.1225,0.1248,0.1038,0.0843,0.0606,0.0283,0.0098,0.0082,0.0033,0.0052,0.0054,0.0056,0.0062,0.0035,0.0034,0.0033,0.0033,0,0,0.0582,0.0647,0.0685,0.0821,0.0898,0.1002,0.1068,0.1157,0.1196,0.1221,0.1176,0.1115,0.0863,0.0617,0.0381,0.02,0.0163,0.0164,0.0212,0.0264,0.0267,0.0106,0.0121,0,0,0,0,0]}],[{"header":{"parameterUnit":"m.s-1","parameterCategory":2,"la1":30.2991,"la2":30.254,"lo1":-89.0895,"lo2":-89.0444,"dy":0.0017,"dx":0.0017,"nx":28,"ny":28,"refTime":"2025-12-17T03:00:00:Z","depth":"4","parameterNumber":2,"parameterNumberName":"U-component_of_CURRENTS"},"data":[0,0,0,0,0,0,0,0,0,0,0,0,0,0,0,0,0,0,0,0,0,0,0,0,0,0,0,0,0,0,0,0,0,0,0,0,0,0,0,0,0,0,0,0,0,0,0,0,0,0,0,0,0,0,0,0,0,0,0.106,0.106,0,0.1076,0.1076,0.1076,0.1112,0.1113,0.1114,0.1115,0.1156,0.1156,0.1157,0,0,0,0,0,0,0,0,0,0,0,0,0,0.1045,0.1045,0.106,0.106,0.106,0.1076,0.1076,0.1076,0.1112,0.1113,0.1114,0.1115,0.1156,0.1156,0.1157,0,0,0,0,0,0,0,0,0,0,0,0,0,0.1055,0.1045,0.106,0.108,0.1082,0.1076,0.1076,0.1076,0.1112,0.1113,0.1114,0.1115,0.1156,0.1156,0.1157,0.1137,0,0,0.1159,0.1159,0,0,0,0,0,0,0,0,0.1054,0.1055,0.1077,0.1079,0.1081,0.1094,0.1086,0.1098,0.1112,0.11,0.1115,0.1116,0.1137,0.1139,0.1139,0.1139,0.1141,0.1159,0.1159,0.1159,0.1159,0,0,0,0,0,0,0,0.1053,0.1054,0.1066,0.1077,0.108,0.1084,0.1086,0.1088,0.1112,0.1101,0.1104,0.1106,0.1138,0.1138,0.114,0.1141,0.1159,0.1159,0.116,0.116,0.1221,0.1223,0,0,0,0,0,0,0.1052,0.1054,0.1065,0.1066,0.1071,0.1083,0.1086,0.1088,0.1112,0.1116,0.1105,0.1108,0.1136,0.1139,0.1142,0.1199,0.1159,0.116,0.116,0.122,0.1222,0.1223,0,0,0,0,0,0,0.1051,0.1052,0.1065,0.1061,0.1063,0.1082,0.1084,0.1088,0.1114,0.1114,0.112,0.1131,0.1137,0.1141,0.1171,0.1198,0.116,0.1161,0.1219,0.1221,0.1222,0.1262,0,0,0,0,0,0,0.1051,0.1052,0.1065,0.1061,0.1063,0.1079,0.1083,0.1087,0.1112,0.1117,0.1138,0.1141,0.1139,0.117,0.1172,0.1198,0.1161,0.1217,0.122,0.1222,0.1259,0.1265,0.127,0,0,0,0,0,0.105,0.1057,0.1065,0.1067,0.1076,0.1079,0.1082,0.1098,0.1113,0.1127,0.1146,0.1142,0.1187,0.1172,0.1173,0.12,0.1216,0.1219,0.1222,0.1256,0.1264,0.127,0,0,0,0,0,0,0.1057,0.1061,0.107,0.108,0.1089,0.1086,0.1101,0.1111,0.1136,0.1149,0.1152,0.1157,0.1194,0.1192,0.1175,0.1226,0.1203,0.1206,0.1229,0.1236,0.1241,0.123,0.1161,0,0,0,0,0,0.1063,0.1074,0.1076,0.1087,0.1093,0.1103,0.1112,0.1123,0.1136,0.115,0.1166,0.1185,0.1201,0.1216,0.1226,0.125,0.1255,0.1271,0.1276,0.1281,0.1275,0.1314,0.1322,0.1233,0.1233,0.1233,0,0,0.1067,0.1074,0.108,0.1091,0.11,0.1109,0.1112,0.1131,0.1147,0.1149,0.1188,0.1205,0.1212,0.1243,0.1259,0.1248,0.1312,0.1285,0.1289,0.1279,0.1318,0.1326,0.1334,0.1235,0.1234,0.1234,0,0,0.1073,0.109,0.1098,0.1108,0.1127,0.1131,0.1143,0.1158,0.1178,0.1205,0.1218,0.125,0.1273,0.1285,0.1292,0.1333,0.1339,0.1349,0.1369,0.1408,0.1415,0.1422,0.1446,0.1455,0.1353,0.1353,0.1353,0,0.1083,0.109,0.1102,0.1113,0.1125,0.1144,0.1156,0.1172,0.12,0.1218,0.1227,0.128,0.1288,0.1322,0.134,0.1344,0.1367,0.1342,0.1415,0.1421,0.1427,0.145,0.1459,0.1355,0.1355,0.1355,0.1355,0,0.1085,0.1103,0.111,0.1131,0.1146,0.1162,0.118,0.1211,0.1238,0.1253,0.1303,0.1319,0.1352,0.1365,0.1363,0.1416,0.1419,0.1416,0.1395,0.1438,0.146,0.1469,0.1359,0.1358,0.1357,0.1357,0,0,0.1079,0.1106,0.1113,0.1125,0.1159,0.1167,0.1204,0.1233,0.1266,0.1301,0.1341,0.1371,0.1395,0.1404,0.1419,0.1448,0.1511,0.1456,0.1457,0.1475,0.1601,0.1492,0.149,0.1533,0.1535,0.1536,0.1601,0,0.1082,0.1099,0.1117,0.1143,0.1151,0.1188,0.1215,0.1251,0.1291,0.1338,0.1366,0.1412,0.1407,0.1441,0.1468,0.1502,0.1535,0.1493,0.1559,0.1561,0.1455,0.1496,0.1541,0.1607,0.1609,0.1611,0.1612,0,0.1074,0.1089,0.1111,0.1144,0.1154,0.1181,0.124,0.1269,0.1334,0.1371,0.1424,0.1454,0.1506,0.1498,0.1569,0.1551,0.158,0.1597,0.16,0.1486,0.1467,0.1554,0.1626,0.1625,0.1624,0.1623,0.1622,0,0.1046,0.1082,0.1101,0.1114,0.1157,0.1189,0.1223,0.1287,0.1322,0.141,0.1452,0.151,0.1556,0.1597,0.1629,0.162,0.1699,0.169,0.1616,0.1609,0.167,0.1662,0.1744,0.1744,0.1744,0.1744,0.1743,0,0.1024,0.1042,0.1097,0.1106,0.1138,0.1181,0.1237,0.1281,0.1359,0.1398,0.1476,0.1512,0.1589,0.1636,0.1655,0.1652,0.1726,0.1619,0.1619,0.1686,0.1679,0.1676,0.1667,0.1746,0.1745,0.1745,0.1745,0,0.0982,0.1017,0.1041,0.11,0.1123,0.1151,0.1236,0.1266,0.136,0.1419,0.1453,0.1542,0.16,0.1653,0.1723,0.1678,0.1692,0.1678,0.1746,0.1749,0.1572,0.1565,0.1598,0.1595,0.1592,0.159,0.1588,0,0.0956,0.0968,0.103,0.1044,0.1077,0.1134,0.116,0.1254,0.1288,0.1413,0.1421,0.1524,0.1569,0.1571,0.164,0.1671,0.1656,0.1652,0.1601,0.156,0.1558,0.1555,0.1552,0.1583,0.1583,0.1582,0.1581,0,0.0914,0.0951,0.0973,0.0999,0.1032,0.1056,0.111,0.1129,0.1229,0.1331,0.1359,0.1398,0.1459,0.1499,0.1541,0.1557,0.1642,0.1622,0.1628,0.158,0.1543,0.1542,0.1543,0.1572,0.1573,0.1574,0.1574,0,0.089,0.0897,0.0931,0.0944,0.0975,0.0962,0.1001,0.1034,0.1082,0.1217,0.1223,0.1331,0.1429,0.1442,0.1474,0.1486,0.1466,0.1414,0.143,0.1441,0.136,0.1288,0.1239,0,0,0,0,0,0.0863,0.0858,0.0867,0.0869,0.0891,0.0904,0.0953,0.0995,0.1099,0.1079,0.115,0.1198,0.1254,0.1312,0.1296,0.1419,0.1477,0.1394,0.1425,0.1518,0.1529,0.1448,0,0,0,0,0,0,0.0838,0.0855,0.0846,0.0805,0.079,0.0799,0.0822,0.0883,0.088,0.0995,0.1028,0.1126,0.1197,0.1254,0.1274,0.1294,0.1287,0.147,0.1467,0.1512,0.1522,0.1531,0.1452,0,0,0,0,0]},{"header":{"parameterUnit":"m.s-1","parameterCategory":2,"la1":30.2991,"la2":30.254,"lo1":-89.0895,"lo2":-89.0444,"dy":0.0017,"dx":0.0017,"nx":28,"ny":28,"refTime":"2025-12-17T03:00:00:Z","depth":"4","parameterNumber":3,"parameterNumberName":"V-component_of_CURRENTS"},"data":[0,0,0,0,0,0,0,0,0,0,0,0,0,0,0,0,0,0,0,0,0,0,0,0,0,0,0,0,0,0,0,0,0,0,0,0,0,0,0,0,0,0,0,0,0,0,0,0,0,0,0,0,0,0,0,0,0,0,0.0235,0.0235,0,0.0233,0.0232,0.0232,0.0224,0.0224,0.0224,0.0223,0.0212,0.0212,0.0212,0,0,0,0,0,0,0,0,0,0,0,0,0,0.0215,0.0215,0.0235,0.0235,0.0235,0.0233,0.0232,0.0232,0.0224,0.0224,0.0223,0.0223,0.0212,0.0212,0.0212,0,0,0,0,0,0,0,0,0,0,0,0,0,0.0219,0.0215,0.0235,0.0231,0.023,0.0233,0.0232,0.0232,0.0224,0.0224,0.0223,0.0223,0.0212,0.0212,0.0212,0.0216,0,0,0.0211,0.0211,0,0,0,0,0,0,0,0,0.0219,0.022,0.0231,0.0231,0.023,0.0228,0.0221,0.0226,0.0224,0.0226,0.0223,0.0223,0.0217,0.0217,0.0216,0.0215,0.0215,0.0211,0.0211,0.0211,0.0211,0,0,0,0,0,0,0,0.0218,0.0219,0.0234,0.0231,0.0231,0.0223,0.0223,0.0222,0.0223,0.0226,0.0225,0.0226,0.0217,0.0217,0.0216,0.0214,0.0211,0.0211,0.0211,0.0211,0.0216,0.0216,0,0,0,0,0,0,0.0221,0.0219,0.0234,0.0234,0.0224,0.0223,0.0224,0.0229,0.0223,0.0222,0.0226,0.0225,0.0217,0.0216,0.0216,0.0232,0.0211,0.0211,0.0211,0.0216,0.0216,0.0216,0,0,0,0,0,0,0.022,0.0222,0.0234,0.0226,0.0227,0.0224,0.023,0.0229,0.0232,0.0223,0.0222,0.0229,0.0217,0.0216,0.0218,0.0231,0.0211,0.021,0.0215,0.0216,0.0216,0.0256,0,0,0,0,0,0,0.022,0.0222,0.0229,0.0227,0.0228,0.0238,0.023,0.0229,0.0232,0.0231,0.0226,0.0224,0.0217,0.0219,0.0218,0.023,0.021,0.0215,0.0215,0.0216,0.0255,0.0258,0.0261,0,0,0,0,0,0.0219,0.023,0.023,0.0232,0.0237,0.0238,0.0238,0.0234,0.0233,0.0235,0.0232,0.0224,0.0221,0.0219,0.0218,0.023,0.0215,0.0215,0.0216,0.0253,0.0257,0.0261,0,0,0,0,0,0,0.0224,0.023,0.023,0.0242,0.0241,0.0237,0.0241,0.0238,0.0238,0.024,0.023,0.0228,0.0234,0.0225,0.0223,0.0232,0.0216,0.0216,0.0245,0.0248,0.0251,0.026,0.021,0,0,0,0,0,0.0229,0.0239,0.0239,0.0248,0.025,0.0247,0.0248,0.0246,0.0244,0.0244,0.024,0.0236,0.0236,0.0237,0.0232,0.024,0.0219,0.0245,0.0249,0.0251,0.0257,0.0231,0.0232,0.0218,0.0218,0.0218,0,0,0.0234,0.0238,0.0243,0.025,0.025,0.026,0.0247,0.0252,0.0261,0.0243,0.0256,0.0247,0.0239,0.0247,0.0248,0.0242,0.0244,0.0252,0.0255,0.0259,0.0232,0.0233,0.0234,0.0219,0.0218,0.0218,0,0,0.0246,0.0252,0.0264,0.0267,0.0271,0.027,0.0273,0.0273,0.0275,0.0283,0.0273,0.0273,0.0272,0.027,0.0269,0.0286,0.0259,0.0283,0.031,0.0285,0.0286,0.0287,0.0259,0.0257,0.0287,0.0287,0.0287,0,0.0252,0.0271,0.0267,0.0279,0.0289,0.0278,0.0295,0.0295,0.0295,0.0302,0.0292,0.0292,0.0284,0.0297,0.0303,0.0295,0.0272,0.0299,0.0289,0.029,0.0289,0.0261,0.0258,0.0289,0.0289,0.0289,0.0289,0,0.0274,0.029,0.0298,0.0314,0.032,0.0332,0.0334,0.0339,0.034,0.034,0.0349,0.0335,0.0335,0.0332,0.0325,0.0327,0.0308,0.0295,0.0281,0.0293,0.0262,0.0258,0.0292,0.0291,0.0291,0.029,0,0,0.0285,0.0311,0.0315,0.0333,0.0343,0.0352,0.0368,0.0384,0.0401,0.0391,0.0407,0.0403,0.039,0.0388,0.0374,0.0356,0.0335,0.0329,0.0327,0.0304,0.0274,0.0251,0.0244,0.0318,0.0317,0.0317,0.0252,0,0.0307,0.0342,0.0349,0.0384,0.0405,0.0405,0.0423,0.0432,0.0437,0.0446,0.0429,0.0436,0.0413,0.0415,0.0392,0.0353,0.0327,0.0354,0.0264,0.0261,0.0241,0.024,0.0316,0.0249,0.0248,0.0247,0.0247,0,0.0329,0.0353,0.0394,0.043,0.044,0.0459,0.0491,0.0506,0.0511,0.0513,0.0509,0.049,0.0473,0.0443,0.0377,0.0393,0.0338,0.0299,0.0296,0.0258,0.0231,0.0234,0.024,0.024,0.0241,0.0241,0.0242,0,0.0345,0.0386,0.0424,0.0436,0.047,0.0493,0.0513,0.053,0.0556,0.0557,0.0566,0.0534,0.0522,0.0453,0.0374,0.0373,0.0287,0.0273,0.0197,0.0194,0.0218,0.0218,0.0215,0.0215,0.0215,0.0215,0.0216,0,0.0367,0.0398,0.0437,0.0459,0.0509,0.0522,0.0575,0.0585,0.0609,0.0638,0.0604,0.0607,0.0523,0.0463,0.0382,0.0279,0.0289,0.0201,0.0177,0.0235,0.0238,0.0214,0.0215,0.0213,0.0214,0.0214,0.0214,0,0.0376,0.0401,0.0449,0.0497,0.0519,0.0555,0.0621,0.0656,0.0669,0.0702,0.0704,0.0663,0.0582,0.0486,0.0371,0.0296,0.0197,0.0154,0.0225,0.0206,0.0117,0.0121,0.0064,0.0063,0.0062,0.0061,0.006,0,0.0386,0.041,0.0477,0.0512,0.054,0.06,0.0644,0.0684,0.0719,0.0734,0.0743,0.0683,0.0638,0.0459,0.0353,0.0189,0.0163,0.0107,0.0112,0.012,0.0102,0.0108,0.0113,0.0058,0.0058,0.0058,0.0057,0,0.0401,0.0424,0.0461,0.0533,0.0591,0.0658,0.0719,0.0746,0.0783,0.0798,0.077,0.0683,0.0587,0.0452,0.0323,0.0207,0.0143,0.0094,0.0096,0.01,0.0112,0.0096,0.0103,0.0053,0.0054,0.0054,0.0054,0,0.041,0.0436,0.0485,0.0548,0.0621,0.0687,0.0725,0.076,0.0793,0.0799,0.0788,0.0689,0.0639,0.046,0.0344,0.0225,0.0191,0.0147,0.0145,0.0148,0.019,0.0218,0.0172,0,0,0,0,0,0.0418,0.0444,0.0499,0.0568,0.064,0.0687,0.076,0.079,0.0821,0.0802,0.0795,0.0703,0.0532,0.0463,0.0337,0.0314,0.0167,0.0162,0.0115,0.0031,0.0036,0.0068,0,0,0,0,0,0,0.0421,0.0466,0.0491,0.0572,0.0621,0.0707,0.0756,0.0783,0.0768,0.0777,0.0688,0.0658,0.0492,0.06,0.033,0.0296,0.0245,0.0089,0.0086,0.0028,0.0033,0.0036,0.0071,0,0,0,0,0]}]]